Casper, WY

11:02 AM MDT on July 26, 2017 (GMT -0600)
Natrona County International

Weather History for KCPR - March, 2013

Change the Weather History Date:

Saturday, March 23, 2013

  Actual Average Record
Temperature  
Mean Temperature 20 °F 37 °F  
Max Temperature 25 °F 50 °F 76 °F (2012)
Min Temperature 14 °F 24 °F -2 °F (1964)
Degree Days  
Heating Degree Days 45 28  
Month to date heating degree days 727 710  
Since 1 July heating degree days 5777 6158  
Cooling Degree Days 0 0  
Month to date cooling degree days 0 0  
Year to date cooling degree days 0 0  
Moisture  
Dew Point 10 °F    
Average Humidity 67    
Maximum Humidity 88    
Minimum Humidity 46    
Precipitation  
Precipitation T in 0.03 in 0.88 in (2009)
Month to date precipitation 0.67 0.57  
Year to date precipitation 1.44 1.65  
Snow  
Snow 0.20 in 0.40 in - ()
Month to date snowfall 6.7 7.8  
Since 1 July snowfall 39.4 57.2  
Snow Depth -    
Sea Level Pressure  
Sea Level Pressure 30.20 in    
Wind  
Wind Speed 6 mph (NE)    
Max Wind Speed 17 mph    
Max Gust Speed 23 mph    
Visibility 8 miles    
Events Snow    
T = Trace of Precipitation, MM = Missing Value Source: NWS Daily Summary

Daily Weather History Graph

Daily Weather History Graph

Search for Another Location

Airport or City:

Trip Planner

Search our weather history database for the weather conditions in past years. The results will help you decide how hot, cold, wet, or windy it might be!

Date:

Astronomy

Mar. 23, 2013 Rise Set
Actual Time 7:03 AM MDT 7:22 PM MDT
Civil Twilight 6:34 AM MDT 7:50 PM MDT
Nautical Twilight 6:01 AM MDT 8:23 PM MDT
Astronomical Twilight 5:27 AM MDT 8:57 PM MDT
Moon 3:47 PM MDT (3/23) 4:46 AM MDT (3/23)
Length of Visible Light 13h 15m
Length of Day
12h 18m
Waxing Gibbous, 85% of the Moon is Illuminated
Mar 23
Waxing Gibbous
Mar 27
Full
Apr 2
Last Quarter
Apr 10
New
Apr 18
First Quarter

Hourly Weather History & Observations

Time (MDT) Temp. Windchill Dew Point Humidity Pressure Visibility Wind Dir Wind Speed Gust Speed Precip Events Conditions
12:30 AM 19.4 °F 3.6 °F 12.2 °F 74% 29.97 in - NNE 19.6 mph 23.0 mph N/A   Overcast
12:53 AM 18.0 °F 3.6 °F 12.0 °F 78% 30.11 in - NE 15.0 mph - N/A   Overcast
1:16 AM 17.6 °F 5.0 °F 12.2 °F 79% 29.98 in - NNE 11.5 mph 23.0 mph N/A   Overcast
1:53 AM 18.0 °F 4.8 °F 12.0 °F 78% 30.12 in - ENE 12.7 mph - N/A   Overcast
2:53 AM 16.0 °F 2.9 °F 12.0 °F 84% 30.13 in - NNE 11.5 mph - 0.00 in   Overcast
3:00 AM 15.8 °F 2.1 °F 10.4 °F 79% 29.99 in - NNE 12.7 mph - N/A   Overcast
3:32 AM 15.8 °F 4.2 °F 12.2 °F 86% 30.00 in - NNE 9.2 mph - 0.00 in Snow Light Snow
3:53 AM 16.0 °F 1.1 °F 10.0 °F 77% 30.14 in - NNE 15.0 mph - 0.00 in Snow Light Snow
4:53 AM 14.0 °F -0.8 °F 9.0 °F 80% 30.16 in 3.0 mi NNE 13.8 mph - 0.00 in Snow Light Snow
5:53 AM 14.0 °F 0.5 °F 8.1 °F 77% 30.19 in 3.0 mi NNE 11.5 mph - 0.00 in Snow Light Snow
6:53 AM 14.0 °F 3.9 °F 8.1 °F 77% 30.21 in 8.0 mi NE 6.9 mph - 0.00 in   Overcast
7:53 AM 14.0 °F 5.1 °F 8.1 °F 77% 30.23 in 6.0 mi NE 5.8 mph - 0.00 in Snow Light Snow
8:53 AM 14.0 °F 2.0 °F 7.0 °F 74% 30.25 in 6.0 mi NNE 9.2 mph - 0.00 in Snow Light Snow
9:53 AM 15.1 °F 5.2 °F 9.0 °F 77% 30.28 in 4.0 mi NE 6.9 mph - 0.00 in Snow Light Snow
10:53 AM 16.0 °F 5.3 °F 9.0 °F 74% 30.29 in 4.0 mi ENE 8.1 mph - 0.00 in Snow Light Snow
11:53 AM 17.1 °F 8.7 °F 7.0 °F 65% 30.30 in 8.0 mi NE 5.8 mph - 0.00 in   Overcast
12:41 PM 19.4 °F 12.8 °F 8.6 °F 63% 30.12 in 10.0 mi NE 4.6 mph - N/A   Scattered Clouds
12:53 PM 18.0 °F - 9.0 °F 68% 30.29 in 10.0 mi Calm Calm - N/A   Partly Cloudy
1:53 PM 19.9 °F 13.4 °F 9.0 °F 62% 30.27 in 10.0 mi West 4.6 mph - N/A   Clear
2:53 PM 21.9 °F 14.5 °F 10.0 °F 60% 30.25 in 10.0 mi NNW 5.8 mph - N/A   Clear
3:53 PM 23.0 °F 15.8 °F 10.9 °F 60% 30.24 in 10.0 mi SW 5.8 mph - N/A   Partly Cloudy
4:53 PM 21.9 °F 13.4 °F 10.9 °F 63% 30.25 in 10.0 mi Variable 6.9 mph - N/A   Mostly Cloudy
5:16 PM 23.0 °F - 10.4 °F 59% 30.08 in 10.0 mi Calm Calm - N/A   Scattered Clouds
5:53 PM 24.1 °F 19.7 °F 7.0 °F 48% 30.24 in 10.0 mi WNW 3.5 mph - N/A   Clear
6:53 PM 21.0 °F - 8.1 °F 57% 30.26 in 10.0 mi Calm Calm - N/A   Clear
7:53 PM 19.9 °F - 10.0 °F 65% 30.27 in 10.0 mi Calm Calm - N/A   Clear
8:53 PM 19.9 °F 12.1 °F 10.9 °F 68% 30.28 in 10.0 mi ESE 5.8 mph - N/A   Partly Cloudy
9:53 PM 19.0 °F 10.0 °F 10.9 °F 71% 30.29 in - East 6.9 mph - N/A   Scattered Clouds
10:53 PM 19.0 °F 13.9 °F 10.0 °F 68% 30.27 in - ESE 3.5 mph - N/A   Scattered Clouds
11:53 PM 18.0 °F - 10.9 °F 74% 30.26 in - Calm Calm - N/A   Overcast